EW4496 Weather Reports


time (UTC)temp
C
wind
direction
speed
KPH
gust
KPH
rain 1hr
cm
rain 24hr
cm
rain mn
cm
humidity
%
barometer
mb
20260906221549 28 309 1.6 12.9 0.00 0.00 0.00 25 1012.1
20260906220048 28 356 0.0 14.5 0.00 0.00 0.00 24 1012.3
20260906214549 28 353 3.2 16.1 0.00 0.00 0.00 26 1012.4
20260906213055 28 321 0.0 12.9 0.00 0.00 0.00 27 1012.4
20260906211548 28 268 3.2 12.9 0.00 0.00 0.00 28 1012.5
20260906210049 28 236 4.8 16.1 0.00 0.00 0.00 28 1012.5
20260906204520 27 263 3.2 11.3 0.00 0.00 0.00 29 1012.5
20260906203028 27 281 6.4 17.7 0.00 0.00 0.00 30 1012.6
20260906201612 27 349 1.6 17.7 0.00 0.00 0.00 32 1012.7
20260906200045 27 315 3.2 17.7 0.00 0.00 0.00 31 1012.8
20260906194554 26 224 1.6 12.9 0.00 0.00 0.00 29 1013.0
20260906193045 26 359 0.0 12.9 0.00 0.00 0.00 32 1013.1
20260906191543 25 332 0.0 12.9 0.00 0.00 0.00 39 1013.2
20260906190045 25 312 1.6 11.3 0.00 0.00 0.00 41 1013.3
20260906184543 24 334 1.6 11.3 0.00 0.00 0.00 44 1013.4
20260906183053 23 231 0.0 9.7 0.00 0.00 0.00 47 1013.6
20260906181548 23 3 0.0 11.3 0.00 0.00 0.00 48 1013.6
20260906180043 22 326 0.0 6.4 0.00 0.00 0.00 52 1013.7
20260906174554 22 268 3.2 11.3 0.00 0.00 0.00 53 1013.8
20260906173045 21 315 0.0 8.0 0.00 0.00 0.00 51 1013.9
20260906171544 21 342 0.0 6.4 0.00 0.00 0.00 52 1013.7
20260906170115 21 309 1.6 8.0 0.00 0.00 0.00 54 1013.7
20260906164615 20 268 3.2 9.7 0.00 0.00 0.00 56 1013.7
20260906163115 20 208 0.0 6.4 0.00 0.00 0.00 59 1013.8
20260906161612 19 211 0.0 9.7 0.00 0.00 0.00 62 1013.9
20260906160112 18 293 0.0 4.8 0.00 0.00 0.00 64 1013.9
20260906154616 18 248 1.6 6.4 0.00 0.00 0.00 66 1013.9
20260906153130 17 202 0.0 8.0 0.00 0.00 0.00 66 1013.9
20260906151612 16 300 0.0 9.7 0.00 0.00 0.00 66 1013.9
20260906150016 16 246 0.0 0.0 0.00 0.00 0.00 68 1014.0
20260906144512 16 245 0.0 0.0 0.00 0.00 0.00 71 1013.9
20260906143011 15 245 0.0 0.0 0.00 0.00 0.00 75 1013.7
20260906141526 14 245 0.0 1.6 0.00 0.00 0.00 78 1013.5
20260906140035 13 232 0.0 1.6 0.00 0.00 0.00 79 1013.3
20260906134526 13 236 0.0 0.0 0.00 0.00 0.00 80 1013.2
20260906133107 13 237 0.0 0.0 0.00 0.00 0.00 79 1013.1
20260906131611 13 238 0.0 1.6 0.00 0.00 0.00 78 1012.9
20260906130111 13 230 0.0 1.6 0.00 0.00 0.00 78 1012.8
20260906124613 13 248 0.0 0.0 0.00 0.00 0.00 79 1012.8
20260906123113 13 247 0.0 0.0 0.00 0.00 0.00 76 1012.9
20260906121611 13 247 0.0 0.0 0.00 0.00 0.00 76 1012.9
20260906120113 12 247 0.0 0.0 0.00 0.00 0.00 78 1012.8
20260906114512 12 247 0.0 0.0 0.00 0.00 0.00 76 1012.7
20260906113013 13 247 0.0 0.0 0.00 0.00 0.00 74 1012.7
20260906111511 13 247 0.0 0.0 0.00 0.00 0.00 74 1012.7
20260906110027 13 247 0.0 0.0 0.00 0.00 0.00 73 1012.7
20260906104526 13 247 0.0 0.0 0.00 0.00 0.00 72 1012.6
20260906103026 14 247 0.0 0.0 0.00 0.00 0.00 73 1012.5
20260906101526 14 247 0.0 0.0 0.00 0.00 0.00 74 1012.4
20260906100025 13 248 0.0 0.0 0.00 0.00 0.00 73 1012.5
20260906094525 14 248 0.0 3.2 0.00 0.00 0.00 73 1012.7
20260906093042 14 255 0.0 0.0 0.00 0.00 0.00 73 1012.8
20260906091525 14 254 0.0 0.0 0.00 0.00 0.00 72 1012.8
20260906090040 15 258 0.0 0.0 0.00 0.00 0.00 70 1012.8
20260906084540 15 262 0.0 3.2 0.00 0.00 0.00 68 1012.9
20260906083040 15 254 0.0 1.6 0.00 0.00 0.00 65 1012.9
20260906081550 16 250 0.0 3.2 0.00 0.00 0.00 62 1012.9
20260906080040 16 248 0.0 3.2 0.00 0.00 0.00 61 1012.9
20260906074540 16 192 0.0 0.0 0.00 0.00 0.00 57 1013.0
20260906073051 16 192 0.0 0.0 0.00 0.00 0.00 57 1012.9
20260906071540 17 192 0.0 0.0 0.00 0.00 0.00 54 1012.8
20260906070046 17 192 0.0 1.6 0.00 0.00 0.00 53 1012.7
20260906064611 17 347 0.0 0.0 0.00 0.00 0.00 52 1012.8
20260906063109 17 347 0.0 0.0 0.00 0.00 0.00 52 1012.8
20260906061506 18 347 0.0 0.0 0.00 0.00 0.00 53 1012.8
20260906060009 18 347 0.0 0.0 0.00 0.00 0.00 51 1012.8
20260906054512 19 347 0.0 0.0 0.00 0.00 0.00 46 1012.8
20260906053009 20 357 0.0 9.7 0.00 0.00 0.00 44 1012.8
20260906051518 20 330 1.6 6.4 0.00 0.00 0.00 45 1012.8
20260906050024 20 338 0.0 8.0 0.00 0.00 0.00 45 1012.7
20260906044524 21 308 1.6 11.3 0.00 0.00 0.00 46 1012.6
20260906043038 21 352 0.0 6.4 0.00 0.00 0.00 46 1012.6
20260906041524 21 330 0.0 6.4 0.00 0.00 0.00 46 1012.4
20260906040052 22 341 0.0 6.4 0.00 0.00 0.00 46 1012.4
20260906034539 22 339 0.0 1.6 0.00 0.00 0.00 46 1012.3
20260906033044 22 345 0.0 4.8 0.00 0.00 0.00 44 1012.2
20260906031539 23 264 0.0 4.8 0.00 0.00 0.00 43 1012.0
20260906030104 23 331 0.0 3.2 0.00 0.00 0.00 43 1011.9
20260906024553 24 331 0.0 1.6 0.00 0.00 0.00 39 1011.7
20260906023113 25 338 0.0 6.4 0.00 0.00 0.00 33 1011.7
20260906021554 26 333 1.6 6.4 0.00 0.00 0.00 30 1011.8
20260906020054 27 316 0.0 4.8 0.00 0.00 0.00 30 1011.9
20260906014615 27 302 0.0 9.7 0.00 0.00 0.00 29 1011.9
20260906013057 27 310 0.0 8.0 0.00 0.00 0.00 29 1011.8
20260906011556 27 319 0.0 8.0 0.00 0.00 0.00 31 1011.8
20260906010053 27 283 0.0 6.4 0.00 0.00 0.00 31 1011.9
20260906004607 27 8 3.2 9.7 0.00 0.00 0.00 31 1011.9
20260906003055 28 323 4.8 17.7 0.00 0.00 0.00 31 1011.9
20260906001552 28 335 1.6 8.0 0.00 0.00 0.00 31 1011.8
20260906000105 29 45 3.2 14.5 0.00 0.00 0.00 30 1011.8
20260905234557 29 347 0.0 9.7 0.00 0.00 0.00 30 1011.9
20260905233056 29 326 0.0 3.2 0.00 0.00 0.00 30 1011.9
20260905231556 29 212 0.0 12.9 0.00 0.00 0.00 29 1012.0
20260905230053 28 281 1.6 12.9 0.00 0.00 0.00 30 1012.2
20260905224604 28 340 1.6 11.3 0.00 0.00 0.00 30 1012.3
20260905223052 28 99 1.6 11.3 0.00 0.00 0.00 31 1012.3